• In Russia
  • List of Countries
  • For 7 days
  • Water Temperature
  • Satellite Maps
  • Weather Map
  • Weather Widgets
  • user-avatar
    Login

    Hourly Weather Kaprun

    Today, 11 December, Sunday

    Time Temperature Precipitation Wind Pressure Humidity
    00:00 -7°C° 0 mm 1 mps 595 mmHg 72%
    01:00 -7°C° 0 mm 1 mps 595 mmHg 72%
    02:00 -7°C° 0 mm 1 mps 594 mmHg 72%
    03:00 -7°C° 0 mm 1 mps 594 mmHg 72%
    04:00 -7°C° 0 mm 1 mps 593 mmHg 72%
    05:00 -7°C° 0 mm 1 mps 594 mmHg 70%
    06:00 -6°C° 0 mm 1 mps 594 mmHg 69%
    07:00 -6°C° 0 mm 1 mps 594 mmHg 68%
    08:00 -3°C° 0 mm 1 mps 595 mmHg 67%
    09:00 -2°C° 0 mm 1 mps 596 mmHg 67%
    10:00 -1°C° 0 mm 1 mps 597 mmHg 66%
    11:00 -2°C° 0 mm 2 mps 597 mmHg 66%
    12:00 -2°C° 0 mm 2 mps 597 mmHg 66%
    13:00 -1°C° 0 mm 2 mps 597 mmHg 66%
    14:00 -2°C° 0.1 mm 2 mps 596 mmHg 71%
    15:00 -4°C° 0.1 mm 2 mps 596 mmHg 76%
    16:00 -5°C° 0.1 mm 2 mps 595 mmHg 81%
    17:00 -6°C° 0.2 mm 2 mps 595 mmHg 84%
    18:00 -6°C° 0.2 mm 2 mps 595 mmHg 88%
    19:00 -6°C° 0.2 mm 2 mps 595 mmHg 92%
    20:00 -6°C° 0.1 mm 2 mps 596 mmHg 93%
    21:00 -6°C° 0.1 mm 2 mps 596 mmHg 94%
    22:00 -6°C° 0.1 mm 2 mps 596 mmHg 95%
    23:00 -6°C° 0.1 mm 2 mps 596 mmHg 95%

    Tomorrow, 12 December, Monday

    Time Temperature Precipitation Wind Pressure Humidity
    00:00 -6°C° 0.1 mm 2 mps 596 mmHg 96%
    01:00 -6°C° 0.1 mm 2 mps 596 mmHg 96%
    02:00 -6°C° 0.2 mm 2 mps 596 mmHg 96%
    03:00 -6°C° 0.2 mm 2 mps 596 mmHg 96%
    04:00 -6°C° 0.2 mm 2 mps 596 mmHg 95%
    05:00 -6°C° 0.3 mm 2 mps 596 mmHg 95%
    06:00 -7°C° 0.3 mm 2 mps 596 mmHg 95%
    07:00 -7°C° 0.3 mm 2 mps 596 mmHg 95%
    08:00 -6°C° 0.2 mm 2 mps 596 mmHg 94%
    09:00 -6°C° 0.2 mm 2 mps 597 mmHg 92%
    10:00 -6°C° 0.2 mm 2 mps 597 mmHg 90%
    11:00 -5°C° 0.1 mm 2 mps 597 mmHg 89%
    12:00 -5°C° 0.1 mm 2 mps 597 mmHg 87%
    13:00 -5°C° 0.1 mm 2 mps 597 mmHg 85%
    14:00 -6°C° 0 mm 2 mps 597 mmHg 88%
    15:00 -7°C° 0 mm 2 mps 597 mmHg 90%
    16:00 -7°C° 0 mm 2 mps 596 mmHg 93%
    17:00 -7°C° 0 mm 1 mps 596 mmHg 93%
    18:00 -8°C° 0 mm 1 mps 596 mmHg 93%
    19:00 -9°C° 0 mm 1 mps 596 mmHg 93%
    20:00 -10°C° 0 mm 1 mps 596 mmHg 91%
    21:00 -11°C° 0 mm 1 mps 595 mmHg 89%
    22:00 -12°C° 0 mm 1 mps 595 mmHg 88%
    23:00 -12°C° 0 mm 1 mps 595 mmHg 87%

    Day after tomorrow, 13 December, Tuesday

    Time Temperature Precipitation Wind Pressure Humidity
    00:00 -13°C° 0 mm 1 mps 594 mmHg 85%
    01:00 -13°C° 0 mm 1 mps 594 mmHg 84%
    02:00 -13°C° 0 mm 1 mps 594 mmHg 82%
    03:00 -13°C° 0 mm 1 mps 594 mmHg 80%
    04:00 -13°C° 0 mm 1 mps 594 mmHg 78%
    05:00 -13°C° 0 mm 1 mps 594 mmHg 77%
    06:00 -14°C° 0 mm 1 mps 594 mmHg 76%
    07:00 -14°C° 0 mm 1 mps 593 mmHg 75%
    08:00 -11°C° 0 mm 1 mps 595 mmHg 72%
    09:00 -8°C° 0 mm 1 mps 597 mmHg 70%
    10:00 -4°C° 0 mm 1 mps 599 mmHg 68%
    11:00 -3°C° 0 mm 1 mps 599 mmHg 69%
    12:00 -3°C° 0 mm 0 mps 599 mmHg 70%
    13:00 -2°C° 0 mm 0 mps 599 mmHg 71%
    14:00 -4°C° 0 mm 0 mps 598 mmHg 73%
    15:00 -7°C° 0 mm 0 mps 597 mmHg 76%
    16:00 -9°C° 0 mm 0 mps 595 mmHg 78%
    17:00 -9°C° 0 mm 1 mps 595 mmHg 76%
    18:00 -9°C° 0 mm 1 mps 596 mmHg 73%
    19:00 -9°C° 0 mm 1 mps 596 mmHg 71%
    20:00 -9°C° 0 mm 1 mps 596 mmHg 70%
    21:00 -9°C° 0 mm 1 mps 596 mmHg 68%
    22:00 -8°C° 0 mm 1 mps 596 mmHg 67%
    23:00 -8°C° 0 mm 1 mps 596 mmHg 68%

    14 December, Wednesday

    Time Temperature Precipitation Wind Pressure Humidity
    00:00 -8°C° 0 mm 1 mps 596 mmHg 69%
    01:00 -8°C° 0 mm 1 mps 595 mmHg 70%
    02:00 -9°C° 0 mm 1 mps 595 mmHg 71%
    03:00 -9°C° 0 mm 1 mps 595 mmHg 72%
    04:00 -9°C° 0 mm 1 mps 594 mmHg 72%
    05:00 -10°C° 0 mm 1 mps 594 mmHg 73%
    06:00 -10°C° 0 mm 1 mps 594 mmHg 74%
    07:00 -10°C° 0 mm 1 mps 594 mmHg 75%
    08:00 -8°C° 0 mm 1 mps 595 mmHg 74%
    09:00 -6°C° 0 mm 1 mps 596 mmHg 72%
    10:00 -3°C° 0 mm 1 mps 597 mmHg 70%
    11:00 -2°C° 0 mm 1 mps 597 mmHg 71%
    12:00 -1°C° 0 mm 1 mps 597 mmHg 72%
    13:00 0°C° 0 mm 1 mps 597 mmHg 73%
    14:00 -2°C° 0 mm 1 mps 596 mmHg 74%
    15:00 -6°C° 0 mm 1 mps 595 mmHg 76%
    16:00 -8°C° 0 mm 1 mps 593 mmHg 77%
    17:00 -8°C° 0 mm 1 mps 593 mmHg 76%
    18:00 -8°C° 0 mm 1 mps 594 mmHg 75%
    19:00 -8°C° 0 mm 1 mps 594 mmHg 73%
    20:00 -8°C° 0 mm 1 mps 594 mmHg 74%
    21:00 -8°C° 0 mm 1 mps 594 mmHg 75%
    22:00 -9°C° 0 mm 2 mps 594 mmHg 76%
    23:00 -8°C° 0 mm 2 mps 594 mmHg 77%

    15 December, Thursday

    Time Temperature Precipitation Wind Pressure Humidity
    00:00 -8°C° 0 mm 2 mps 594 mmHg 78%
    01:00 -8°C° 0 mm 2 mps 594 mmHg 80%
    02:00 -8°C° 0 mm 2 mps 594 mmHg 81%
    03:00 -8°C° 0 mm 2 mps 594 mmHg 82%
    04:00 -8°C° 0 mm 2 mps 594 mmHg 83%
    05:00 -8°C° 0 mm 2 mps 594 mmHg 84%
    06:00 -8°C° 0 mm 2 mps 594 mmHg 85%
    07:00 -8°C° 0 mm 2 mps 594 mmHg 86%
    08:00 -6°C° 0.1 mm 1 mps 595 mmHg 86%
    09:00 -4°C° 0.1 mm 1 mps 596 mmHg 85%
    10:00 -3°C° 0.1 mm 1 mps 596 mmHg 85%
    11:00 -3°C° 0 mm 1 mps 597 mmHg 84%
    12:00 -2°C° 0 mm 1 mps 597 mmHg 84%
    13:00 -1°C° 0 mm 1 mps 597 mmHg 84%
    14:00 -2°C° 0 mm 1 mps 596 mmHg 88%
    15:00 -3°C° 0 mm 1 mps 596 mmHg 91%
    16:00 -4°C° 0 mm 1 mps 595 mmHg 94%
    17:00 -7°C° 0 mm 1 mps 595 mmHg 95%
    18:00 -9°C° 0 mm 1 mps 594 mmHg 95%
    19:00 -10°C° 0 mm 1 mps 593 mmHg 96%
    20:00 -11°C° 0 mm 1 mps 593 mmHg 96%
    21:00 -11°C° 0 mm 1 mps 593 mmHg 95%
    22:00 -11°C° 0 mm 0 mps 593 mmHg 95%
    23:00 -11°C° 0 mm 1 mps 593 mmHg 94%

    16 December, Friday

    Time Temperature Precipitation Wind Pressure Humidity
    00:00 -10°C° 0 mm 1 mps 594 mmHg 93%
    01:00 -9°C° 0 mm 1 mps 594 mmHg 92%
    02:00 -9°C° 0 mm 1 mps 594 mmHg 92%
    03:00 -9°C° 0 mm 1 mps 594 mmHg 91%
    04:00 -8°C° 0 mm 1 mps 594 mmHg 91%
    05:00 -8°C° 0 mm 1 mps 594 mmHg 91%
    06:00 -8°C° 0 mm 1 mps 594 mmHg 90%
    07:00 -8°C° 0 mm 1 mps 594 mmHg 90%
    08:00 -7°C° 0 mm 1 mps 595 mmHg 89%
    09:00 -6°C° 0 mm 1 mps 595 mmHg 88%
    10:00 -6°C° 0 mm 2 mps 596 mmHg 87%
    11:00 -3°C° 0 mm 1 mps 596 mmHg 87%
    12:00 -3°C° 0 mm 1 mps 595 mmHg 86%
    13:00 -2°C° 0 mm 1 mps 595 mmHg 86%
    14:00 -3°C° 0 mm 1 mps 595 mmHg 88%
    15:00 -4°C° 0 mm 1 mps 594 mmHg 91%
    16:00 -6°C° 0 mm 1 mps 594 mmHg 93%
    17:00 -7°C° 0 mm 1 mps 594 mmHg 93%
    18:00 -8°C° 0 mm 2 mps 594 mmHg 93%
    19:00 -8°C° 0 mm 2 mps 594 mmHg 93%
    20:00 -9°C° 0 mm 2 mps 594 mmHg 92%
    21:00 -9°C° 0 mm 2 mps 594 mmHg 92%
    22:00 -9°C° 0 mm 2 mps 594 mmHg 91%
    23:00 -9°C° 0 mm 2 mps 595 mmHg 91%
    Show more